| time (UTC) | temp C | wind direction | speed KPH | gust KPH | rain 1hr cm | rain 24hr cm | rain mn cm | humidity % | barometer mb |
| 20260904135239 | 27 | 150 | 3.2 | 11.3 | 0.00 | 0.00 | 0.00 | 85 | 1014.5 |
| 20260904133739 | 27 | 151 | 3.2 | 8.0 | 0.00 | 0.00 | 0.00 | 87 | 1014.5 |
| 20260904133239 | 26 | 146 | 3.2 | 8.0 | 0.00 | 0.00 | 0.00 | 88 | 1014.4 |
| 20260904132740 | 26 | 149 | 1.6 | 6.4 | 0.00 | 0.00 | 0.00 | 89 | 1014.3 |
| 20260904131739 | 26 | 152 | 1.6 | 8.0 | 0.00 | 0.00 | 0.00 | 90 | 1014.2 |
| 20260904130739 | 26 | 165 | 1.6 | 3.2 | 0.00 | 0.00 | 0.00 | 91 | 1014.0 |
| 20260904130238 | 26 | 155 | 1.6 | 4.8 | 0.00 | 0.00 | 0.00 | 91 | 1014.0 |
| 20260904125738 | 26 | 149 | 1.6 | 4.8 | 0.00 | 0.00 | 0.00 | 91 | 1014.0 |
| 20260904125239 | 25 | 147 | 1.6 | 4.8 | 0.00 | 0.00 | 0.00 | 91 | 1013.9 |
| 20260904124739 | 25 | 152 | 1.6 | 4.8 | 0.00 | 0.00 | 0.00 | 91 | 1013.9 |
| 20260904124239 | 25 | 0 | 0.0 | 3.2 | 0.00 | 0.00 | 0.00 | 92 | 1013.8 |
| 20260904123739 | 25 | 0 | 0.0 | 1.6 | 0.00 | 0.00 | 0.00 | 92 | 1013.7 |
| 20260904123239 | 25 | 0 | 0.0 | 3.2 | 0.00 | 0.00 | 0.00 | 93 | 1013.7 |
| 20260904122738 | 25 | 0 | 0.0 | 3.2 | 0.00 | 0.00 | 0.00 | 93 | 1013.6 |
| 20260904122239 | 25 | 151 | 1.6 | 3.2 | 0.00 | 0.00 | 0.00 | 93 | 1013.6 |
| 20260904121739 | 25 | 157 | 1.6 | 3.2 | 0.00 | 0.00 | 0.00 | 93 | 1013.6 |
| 20260904115739 | 25 | 155 | 1.6 | 4.8 | 0.00 | 0.00 | 0.00 | 93 | 1013.3 |
| 20260904115239 | 25 | 154 | 1.6 | 3.2 | 0.00 | 0.00 | 0.00 | 92 | 1013.3 |
| 20260904114740 | 25 | 154 | 1.6 | 3.2 | 0.00 | 0.00 | 0.00 | 92 | 1013.3 |
| 20260904114240 | 25 | 154 | 1.6 | 3.2 | 0.00 | 0.00 | 0.00 | 92 | 1013.3 |
| 20260904113740 | 25 | 0 | 0.0 | 3.2 | 0.00 | 0.00 | 0.00 | 92 | 1013.2 |
| 20260904112739 | 25 | 149 | 1.6 | 4.8 | 0.00 | 0.00 | 0.00 | 92 | 1013.2 |
| 20260904112239 | 25 | 155 | 1.6 | 6.4 | 0.00 | 0.00 | 0.00 | 91 | 1013.1 |
| 20260904111739 | 25 | 162 | 1.6 | 6.4 | 0.00 | 0.00 | 0.00 | 91 | 1013.0 |
| 20260904111239 | 25 | 0 | 0.0 | 3.2 | 0.00 | 0.00 | 0.00 | 91 | 1013.0 |
| 20260904110239 | 25 | 162 | 1.6 | 3.2 | 0.00 | 0.00 | 0.00 | 91 | 1013.0 |
| 20260904105739 | 25 | 162 | 1.6 | 3.2 | 0.00 | 0.00 | 0.00 | 91 | 1013.1 |
| 20260904105239 | 25 | 163 | 1.6 | 3.2 | 0.00 | 0.00 | 0.00 | 91 | 1013.0 |
| 20260904104740 | 25 | 163 | 1.6 | 3.2 | 0.00 | 0.00 | 0.00 | 91 | 1012.8 |
| 20260904104240 | 25 | 0 | 0.0 | 3.2 | 0.00 | 0.00 | 0.00 | 91 | 1012.7 |
| 20260904103739 | 25 | 0 | 0.0 | 3.2 | 0.00 | 0.00 | 0.00 | 91 | 1012.7 |
| 20260904103239 | 25 | 0 | 0.0 | 3.2 | 0.00 | 0.00 | 0.00 | 91 | 1012.8 |
| 20260904102740 | 25 | 0 | 0.0 | 3.2 | 0.00 | 0.00 | 0.00 | 91 | 1012.8 |
| 20260904102239 | 25 | 0 | 0.0 | 3.2 | 0.00 | 0.00 | 0.00 | 91 | 1012.8 |
| 20260904101739 | 25 | 0 | 0.0 | 3.2 | 0.00 | 0.00 | 0.00 | 91 | 1012.9 |
| 20260904101239 | 25 | 147 | 1.6 | 3.2 | 0.00 | 0.00 | 0.00 | 91 | 1012.9 |
| 20260904100739 | 25 | 147 | 1.6 | 3.2 | 0.00 | 0.00 | 0.00 | 91 | 1012.8 |
| 20260904100239 | 25 | 147 | 1.6 | 3.2 | 0.00 | 0.00 | 0.00 | 91 | 1012.8 |
| 20260904095740 | 25 | 150 | 1.6 | 4.8 | 0.00 | 0.00 | 0.00 | 91 | 1012.8 |
| 20260904095239 | 25 | 152 | 1.6 | 4.8 | 0.00 | 0.00 | 0.00 | 91 | 1012.8 |
| 20260904094739 | 25 | 0 | 0.0 | 1.6 | 0.00 | 0.00 | 0.00 | 91 | 1012.8 |
| 20260904094239 | 25 | 0 | 0.0 | 1.6 | 0.00 | 0.00 | 0.00 | 91 | 1012.7 |
| 20260904093739 | 25 | 141 | 1.6 | 3.2 | 0.00 | 0.00 | 0.00 | 91 | 1012.6 |
| 20260904093239 | 25 | 142 | 3.2 | 4.8 | 0.00 | 0.00 | 0.00 | 90 | 1012.6 |
| 20260904092740 | 25 | 149 | 3.2 | 6.4 | 0.00 | 0.00 | 0.00 | 90 | 1012.5 |
| 20260904092240 | 25 | 163 | 1.6 | 6.4 | 0.00 | 0.00 | 0.00 | 90 | 1012.5 |
| 20260904091739 | 25 | 182 | 1.6 | 3.2 | 0.00 | 0.00 | 0.00 | 90 | 1012.4 |
| 20260904091240 | 25 | 181 | 1.6 | 4.8 | 0.00 | 0.00 | 0.00 | 89 | 1012.4 |
| 20260904090739 | 25 | 177 | 1.6 | 4.8 | 0.00 | 0.00 | 0.00 | 89 | 1012.6 |
| 20260904090240 | 25 | 0 | 0.0 | 3.2 | 0.00 | 0.00 | 0.00 | 89 | 1012.7 |
| 20260904085740 | 25 | 0 | 0.0 | 3.2 | 0.00 | 0.00 | 0.00 | 89 | 1012.7 |
| 20260904085239 | 25 | 0 | 0.0 | 3.2 | 0.00 | 0.00 | 0.00 | 89 | 1012.9 |
| 20260904084739 | 25 | 0 | 0.0 | 1.6 | 0.00 | 0.00 | 0.00 | 89 | 1012.9 |
| 20260904083740 | 25 | 0 | 0.0 | 3.2 | 0.00 | 0.00 | 0.00 | 89 | 1012.8 |
| 20260904082739 | 25 | 182 | 1.6 | 3.2 | 0.00 | 0.00 | 0.00 | 89 | 1012.7 |
| 20260904082239 | 25 | 159 | 1.6 | 3.2 | 0.00 | 0.00 | 0.00 | 90 | 1012.7 |
| 20260904081739 | 25 | 148 | 1.6 | 4.8 | 0.00 | 0.00 | 0.00 | 90 | 1012.8 |
| 20260904081239 | 25 | 143 | 1.6 | 4.8 | 0.00 | 0.00 | 0.00 | 89 | 1012.8 |
| 20260904080241 | 25 | 161 | 3.2 | 6.4 | 0.00 | 0.00 | 0.00 | 89 | 1012.7 |
| 20260904075739 | 25 | 158 | 3.2 | 6.4 | 0.00 | 0.00 | 0.00 | 89 | 1012.6 |
| 20260904075239 | 25 | 157 | 3.2 | 6.4 | 0.00 | 0.00 | 0.00 | 89 | 1012.7 |
| 20260904074739 | 25 | 162 | 1.6 | 8.0 | 0.00 | 0.00 | 0.00 | 89 | 1012.7 |
| 20260904073740 | 25 | 159 | 1.6 | 8.0 | 0.00 | 0.00 | 0.00 | 89 | 1012.8 |
| 20260904073239 | 25 | 163 | 3.2 | 8.0 | 0.00 | 0.00 | 0.00 | 89 | 1012.8 |
| 20260904072739 | 25 | 162 | 3.2 | 6.4 | 0.00 | 0.00 | 0.00 | 89 | 1012.8 |
| 20260904072240 | 25 | 159 | 1.6 | 6.4 | 0.00 | 0.00 | 0.00 | 89 | 1012.8 |
| 20260904071739 | 25 | 156 | 3.2 | 8.0 | 0.00 | 0.00 | 0.00 | 89 | 1012.9 |
| 20260904070240 | 25 | 157 | 3.2 | 9.7 | 0.00 | 0.00 | 0.00 | 89 | 1012.8 |
| 20260904065740 | 25 | 156 | 3.2 | 6.4 | 0.00 | 0.00 | 0.00 | 89 | 1012.8 |
| 20260904065240 | 25 | 157 | 3.2 | 8.0 | 0.00 | 0.00 | 0.00 | 89 | 1012.8 |
| 20260904064739 | 25 | 159 | 3.2 | 8.0 | 0.00 | 0.00 | 0.00 | 88 | 1012.7 |
| 20260904064240 | 25 | 160 | 3.2 | 8.0 | 0.00 | 0.00 | 0.00 | 88 | 1012.7 |
| 20260904063739 | 25 | 159 | 3.2 | 8.0 | 0.00 | 0.00 | 0.00 | 88 | 1012.7 |
| 20260904063240 | 25 | 152 | 3.2 | 6.4 | 0.00 | 0.00 | 0.00 | 88 | 1012.7 |
| 20260904062739 | 25 | 147 | 3.2 | 6.4 | 0.00 | 0.00 | 0.00 | 87 | 1012.8 |
| 20260904062240 | 26 | 148 | 3.2 | 8.0 | 0.00 | 0.00 | 0.00 | 87 | 1012.8 |
| 20260904061740 | 26 | 153 | 3.2 | 8.0 | 0.00 | 0.00 | 0.00 | 86 | 1012.8 |
| 20260904061239 | 26 | 158 | 3.2 | 8.0 | 0.00 | 0.00 | 0.00 | 86 | 1012.8 |
| 20260904060739 | 26 | 158 | 3.2 | 8.0 | 0.00 | 0.00 | 0.00 | 86 | 1012.9 |
| 20260904060241 | 26 | 154 | 3.2 | 8.0 | 0.00 | 0.00 | 0.00 | 86 | 1013.0 |
| 20260904055740 | 26 | 151 | 4.8 | 9.7 | 0.00 | 0.00 | 0.00 | 85 | 1012.9 |
| 20260904055239 | 26 | 154 | 4.8 | 9.7 | 0.00 | 0.00 | 0.00 | 85 | 1013.0 |
| 20260904054239 | 26 | 153 | 4.8 | 9.7 | 0.00 | 0.00 | 0.00 | 85 | 1012.8 |
| 20260904053740 | 26 | 149 | 4.8 | 8.0 | 0.00 | 0.00 | 0.00 | 85 | 1013.0 |
| 20260904053240 | 26 | 148 | 3.2 | 8.0 | 0.00 | 0.00 | 0.00 | 85 | 1013.0 |
| 20260904052240 | 26 | 151 | 3.2 | 8.0 | 0.00 | 0.00 | 0.00 | 85 | 1013.0 |
| 20260904051739 | 26 | 150 | 3.2 | 8.0 | 0.00 | 0.00 | 0.00 | 85 | 1013.0 |
| 20260904051239 | 26 | 149 | 4.8 | 9.7 | 0.00 | 0.00 | 0.00 | 85 | 1013.0 |
| 20260904050739 | 26 | 151 | 4.8 | 9.7 | 0.00 | 0.00 | 0.00 | 85 | 1012.9 |
| 20260904050240 | 26 | 153 | 4.8 | 9.7 | 0.00 | 0.00 | 0.00 | 85 | 1012.8 |
| 20260904045741 | 26 | 155 | 3.2 | 8.0 | 0.00 | 0.00 | 0.00 | 84 | 1012.9 |
| 20260904045239 | 26 | 148 | 4.8 | 8.0 | 0.00 | 0.00 | 0.00 | 84 | 1013.0 |
| 20260904044739 | 26 | 143 | 4.8 | 6.4 | 0.00 | 0.00 | 0.00 | 85 | 1013.0 |
| 20260904044240 | 26 | 146 | 4.8 | 8.0 | 0.00 | 0.00 | 0.00 | 85 | 1013.0 |
| 20260904043740 | 26 | 147 | 4.8 | 8.0 | 0.00 | 0.00 | 0.00 | 85 | 1013.0 |
| 20260904043239 | 26 | 149 | 3.2 | 8.0 | 0.00 | 0.00 | 0.00 | 85 | 1012.8 |
| 20260904042739 | 26 | 149 | 3.2 | 8.0 | 0.00 | 0.00 | 0.00 | 84 | 1012.8 |
| 20260904041740 | 26 | 147 | 4.8 | 8.0 | 0.00 | 0.00 | 0.00 | 84 | 1012.9 |
| 20260904041239 | 26 | 146 | 4.8 | 8.0 | 0.00 | 0.00 | 0.00 | 84 | 1012.9 |
| 20260904040739 | 26 | 144 | 4.8 | 8.0 | 0.00 | 0.00 | 0.00 | 83 | 1012.9 |
| 20260904040239 | 26 | 141 | 4.8 | 11.3 | 0.00 | 0.00 | 0.00 | 83 | 1012.9 |
| 20260904035739 | 26 | 144 | 4.8 | 11.3 | 0.00 | 0.00 | 0.00 | 84 | 1012.9 |
| 20260904035240 | 26 | 145 | 4.8 | 9.7 | 0.00 | 0.00 | 0.00 | 84 | 1012.9 |
| 20260904034740 | 26 | 143 | 4.8 | 8.0 | 0.00 | 0.00 | 0.00 | 84 | 1012.9 |
| 20260904033740 | 26 | 140 | 4.8 | 8.0 | 0.00 | 0.00 | 0.00 | 84 | 1012.9 |
| 20260904033240 | 26 | 140 | 4.8 | 8.0 | 0.00 | 0.00 | 0.00 | 84 | 1012.8 |
| 20260904032739 | 26 | 141 | 4.8 | 8.0 | 0.00 | 0.00 | 0.00 | 84 | 1012.9 |
| 20260904032239 | 26 | 142 | 4.8 | 9.7 | 0.00 | 0.00 | 0.00 | 85 | 1012.8 |
| 20260904031740 | 26 | 142 | 4.8 | 9.7 | 0.00 | 0.00 | 0.00 | 85 | 1012.7 |
| 20260904031240 | 26 | 141 | 4.8 | 8.0 | 0.00 | 0.00 | 0.00 | 85 | 1012.8 |
| 20260904030740 | 26 | 142 | 4.8 | 8.0 | 0.00 | 0.00 | 0.00 | 84 | 1012.8 |
| 20260904025740 | 26 | 144 | 3.2 | 9.7 | 0.00 | 0.00 | 0.00 | 84 | 1012.6 |
| 20260904025239 | 26 | 139 | 3.2 | 8.0 | 0.00 | 0.00 | 0.00 | 84 | 1012.5 |
| 20260904024739 | 26 | 140 | 3.2 | 8.0 | 0.00 | 0.00 | 0.00 | 84 | 1012.4 |
| 20260904024240 | 27 | 145 | 3.2 | 8.0 | 0.00 | 0.00 | 0.00 | 83 | 1012.3 |
| 20260904023740 | 27 | 148 | 3.2 | 6.4 | 0.00 | 0.00 | 0.00 | 83 | 1012.3 |
| 20260904022740 | 27 | 152 | 3.2 | 9.7 | 0.00 | 0.00 | 0.00 | 83 | 1012.1 |
| 20260904022240 | 27 | 150 | 4.8 | 8.0 | 0.00 | 0.00 | 0.00 | 83 | 1012.1 |
| 20260904021740 | 27 | 145 | 4.8 | 8.0 | 0.00 | 0.00 | 0.00 | 83 | 1012.0 |
| 20260904021239 | 27 | 139 | 3.2 | 8.0 | 0.00 | 0.00 | 0.00 | 83 | 1012.0 |
| 20260904020740 | 27 | 137 | 4.8 | 8.0 | 0.00 | 0.00 | 0.00 | 83 | 1012.0 |
| 20260904015740 | 27 | 142 | 4.8 | 9.7 | 0.00 | 0.00 | 0.00 | 82 | 1011.7 |
| 20260904015240 | 27 | 141 | 4.8 | 11.3 | 0.00 | 0.00 | 0.00 | 82 | 1011.6 |
| 20260904014739 | 27 | 140 | 4.8 | 11.3 | 0.00 | 0.00 | 0.00 | 81 | 1011.5 |
| 20260904014239 | 27 | 136 | 4.8 | 8.0 | 0.00 | 0.00 | 0.00 | 81 | 1011.5 |
| 20260904013740 | 27 | 137 | 4.8 | 8.0 | 0.00 | 0.00 | 0.00 | 80 | 1011.5 |
| 20260904013240 | 27 | 144 | 4.8 | 9.7 | 0.00 | 0.00 | 0.00 | 80 | 1011.4 |
| 20260904012739 | 27 | 147 | 4.8 | 9.7 | 0.00 | 0.00 | 0.00 | 80 | 1011.4 |
| 20260904012239 | 27 | 149 | 4.8 | 8.0 | 0.00 | 0.00 | 0.00 | 80 | 1011.1 |
| 20260904011740 | 27 | 149 | 4.8 | 8.0 | 0.00 | 0.00 | 0.00 | 80 | 1011.1 |
| 20260904011241 | 27 | 148 | 4.8 | 9.7 | 0.00 | 0.00 | 0.00 | 79 | 1011.1 |
| 20260904010739 | 27 | 150 | 4.8 | 9.7 | 0.00 | 0.00 | 0.00 | 79 | 1011.0 |
| 20260904010241 | 27 | 154 | 4.8 | 9.7 | 0.00 | 0.00 | 0.00 | 79 | 1010.9 |
| 20260904005740 | 27 | 152 | 4.8 | 11.3 | 0.00 | 0.00 | 0.00 | 78 | 1011.0 |
| 20260904004739 | 27 | 149 | 6.4 | 14.5 | 0.00 | 0.00 | 0.00 | 77 | 1011.1 |
| 20260904004240 | 28 | 153 | 6.4 | 14.5 | 0.00 | 0.00 | 0.00 | 77 | 1011.1 |
| 20260904003741 | 28 | 154 | 4.8 | 9.7 | 0.00 | 0.00 | 0.00 | 77 | 1011.1 |
| 20260904003239 | 28 | 153 | 4.8 | 12.9 | 0.00 | 0.00 | 0.00 | 76 | 1011.2 |
| 20260904002740 | 28 | 151 | 6.4 | 12.9 | 0.00 | 0.00 | 0.00 | 75 | 1011.3 |
| 20260904002241 | 28 | 152 | 8.0 | 14.5 | 0.00 | 0.00 | 0.00 | 74 | 1011.2 |
| 20260904001741 | 28 | 153 | 8.0 | 16.1 | 0.00 | 0.00 | 0.00 | 74 | 1011.2 |
| 20260904001240 | 28 | 155 | 8.0 | 16.1 | 0.00 | 0.00 | 0.00 | 73 | 1011.1 |
| 20260904000241 | 29 | 153 | 8.0 | 14.5 | 0.00 | 0.00 | 0.00 | 71 | 1011.1 |
| 20260903235740 | 29 | 151 | 9.7 | 16.1 | 0.00 | 0.00 | 0.00 | 71 | 1011.1 |
| 20260903235239 | 29 | 151 | 9.7 | 16.1 | 0.00 | 0.00 | 0.00 | 70 | 1011.0 |
| 20260903234740 | 30 | 152 | 8.0 | 14.5 | 0.00 | 0.00 | 0.00 | 69 | 1011.0 |
| 20260903234240 | 30 | 154 | 8.0 | 16.1 | 0.00 | 0.00 | 0.00 | 68 | 1011.1 |
| 20260903233740 | 30 | 152 | 9.7 | 16.1 | 0.00 | 0.00 | 0.00 | 67 | 1011.0 |
| 20260903233241 | 30 | 152 | 9.7 | 17.7 | 0.00 | 0.00 | 0.00 | 68 | 1011.0 |
| 20260903232242 | 30 | 152 | 11.3 | 16.1 | 0.00 | 0.00 | 0.00 | 66 | 1010.9 |
| 20260903231740 | 30 | 149 | 9.7 | 16.1 | 0.00 | 0.00 | 0.00 | 64 | 1011.0 |
| 20260903231240 | 30 | 145 | 9.7 | 14.5 | 0.00 | 0.00 | 0.00 | 65 | 1010.8 |
| 20260903230739 | 30 | 142 | 8.0 | 12.9 | 0.00 | 0.00 | 0.00 | 64 | 1010.8 |
| 20260903225741 | 31 | 141 | 8.0 | 14.5 | 0.00 | 0.00 | 0.00 | 63 | 1010.8 |
| 20260903225239 | 31 | 139 | 9.7 | 16.1 | 0.00 | 0.00 | 0.00 | 63 | 1010.8 |
| 20260903224740 | 31 | 145 | 9.7 | 16.1 | 0.00 | 0.00 | 0.00 | 62 | 1010.7 |
| 20260903224240 | 30 | 151 | 9.7 | 16.1 | 0.00 | 0.00 | 0.00 | 63 | 1010.7 |
| 20260903223740 | 30 | 146 | 9.7 | 14.5 | 0.00 | 0.00 | 0.00 | 63 | 1010.7 |
| 20260903223240 | 30 | 144 | 8.0 | 14.5 | 0.00 | 0.00 | 0.00 | 64 | 1010.7 |
| 20260903222740 | 30 | 148 | 8.0 | 14.5 | 0.00 | 0.00 | 0.00 | 65 | 1010.7 |
| 20260903222240 | 30 | 150 | 8.0 | 14.5 | 0.00 | 0.00 | 0.00 | 66 | 1010.8 |
| 20260903221740 | 30 | 145 | 8.0 | 14.5 | 0.00 | 0.00 | 0.00 | 67 | 1010.7 |
| 20260903221240 | 30 | 142 | 9.7 | 16.1 | 0.00 | 0.00 | 0.00 | 68 | 1010.8 |
| 20260903220740 | 30 | 146 | 8.0 | 16.1 | 0.00 | 0.00 | 0.00 | 68 | 1010.8 |
| 20260903220241 | 30 | 150 | 8.0 | 16.1 | 0.00 | 0.00 | 0.00 | 67 | 1010.8 |
| 20260903215739 | 30 | 145 | 8.0 | 16.1 | 0.00 | 0.00 | 0.00 | 67 | 1010.8 |
| 20260903215240 | 31 | 144 | 8.0 | 16.1 | 0.00 | 0.00 | 0.00 | 66 | 1010.7 |
| 20260903214740 | 31 | 150 | 8.0 | 16.1 | 0.00 | 0.00 | 0.00 | 66 | 1010.8 |
| 20260903214241 | 31 | 152 | 6.4 | 12.9 | 0.00 | 0.00 | 0.00 | 64 | 1010.7 |
| 20260903213740 | 32 | 152 | 6.4 | 12.9 | 0.00 | 0.00 | 0.00 | 63 | 1010.7 |
| 20260903213239 | 32 | 151 | 8.0 | 16.1 | 0.00 | 0.00 | 0.00 | 62 | 1010.6 |
| 20260903212742 | 32 | 151 | 8.0 | 16.1 | 0.00 | 0.00 | 0.00 | 61 | 1010.8 |
| 20260903212239 | 32 | 147 | 8.0 | 16.1 | 0.00 | 0.00 | 0.00 | 61 | 1010.8 |
| 20260903210740 | 32 | 156 | 6.4 | 12.9 | 0.00 | 0.00 | 0.00 | 60 | 1010.8 |
| 20260903210240 | 32 | 159 | 6.4 | 14.5 | 0.00 | 0.00 | 0.00 | 60 | 1010.9 |
| 20260903205740 | 32 | 160 | 6.4 | 14.5 | 0.00 | 0.00 | 0.00 | 61 | 1010.8 |
| 20260903205240 | 32 | 161 | 6.4 | 14.5 | 0.00 | 0.00 | 0.00 | 62 | 1011.0 |
| 20260903204741 | 32 | 165 | 6.4 | 14.5 | 0.00 | 0.00 | 0.00 | 62 | 1011.0 |
| 20260903203740 | 32 | 160 | 6.4 | 16.1 | 0.00 | 0.00 | 0.00 | 62 | 1011.3 |
| 20260903203240 | 32 | 156 | 8.0 | 16.1 | 0.00 | 0.00 | 0.00 | 63 | 1011.3 |
| 20260903202741 | 32 | 160 | 6.4 | 17.7 | 0.00 | 0.00 | 0.00 | 63 | 1011.4 |
| 20260903202241 | 32 | 169 | 6.4 | 17.7 | 0.00 | 0.00 | 0.00 | 63 | 1011.5 |
| 20260903201740 | 32 | 162 | 6.4 | 14.5 | 0.00 | 0.00 | 0.00 | 63 | 1011.5 |
| 20260903201241 | 32 | 159 | 6.4 | 14.5 | 0.00 | 0.00 | 0.00 | 63 | 1011.6 |
| 20260903200740 | 32 | 164 | 6.4 | 14.5 | 0.00 | 0.00 | 0.00 | 63 | 1011.6 |
| 20260903200240 | 32 | 166 | 6.4 | 11.3 | 0.00 | 0.00 | 0.00 | 62 | 1011.7 |
| 20260903195740 | 32 | 168 | 6.4 | 16.1 | 0.00 | 0.00 | 0.00 | 62 | 1011.7 |
| 20260903195241 | 32 | 164 | 8.0 | 16.1 | 0.00 | 0.00 | 0.00 | 64 | 1011.7 |
| 20260903194740 | 32 | 157 | 8.0 | 16.1 | 0.00 | 0.00 | 0.00 | 64 | 1011.8 |
| 20260903194240 | 32 | 155 | 6.4 | 14.5 | 0.00 | 0.00 | 0.00 | 65 | 1011.9 |
| 20260903193741 | 31 | 153 | 8.0 | 14.5 | 0.00 | 0.00 | 0.00 | 66 | 1012.0 |
| 20260903193240 | 31 | 154 | 6.4 | 14.5 | 0.00 | 0.00 | 0.00 | 67 | 1012.0 |
| 20260903192740 | 31 | 149 | 8.0 | 14.5 | 0.00 | 0.00 | 0.00 | 68 | 1012.2 |
| 20260903192242 | 31 | 148 | 8.0 | 14.5 | 0.00 | 0.00 | 0.00 | 70 | 1012.2 |
| 20260903191740 | 31 | 155 | 8.0 | 14.5 | 0.00 | 0.00 | 0.00 | 69 | 1012.4 |
| 20260903191240 | 31 | 156 | 8.0 | 16.1 | 0.00 | 0.00 | 0.00 | 71 | 1012.5 |
| 20260903190740 | 30 | 152 | 8.0 | 17.7 | 0.00 | 0.00 | 0.00 | 72 | 1012.7 |
| 20260903190240 | 30 | 151 | 8.0 | 17.7 | 0.00 | 0.00 | 0.00 | 74 | 1012.9 |
| 20260903185740 | 30 | 151 | 8.0 | 17.7 | 0.00 | 0.00 | 0.00 | 74 | 1012.9 |
| 20260903184240 | 28 | 148 | 8.0 | 14.5 | 0.00 | 0.00 | 0.00 | 77 | 1013.3 |
| 20260903183740 | 28 | 150 | 8.0 | 16.1 | 0.00 | 0.00 | 0.00 | 78 | 1013.3 |
| 20260903183240 | 28 | 150 | 9.7 | 16.1 | 0.00 | 0.00 | 0.00 | 79 | 1013.3 |
| 20260903182740 | 28 | 153 | 9.7 | 17.7 | 0.00 | 0.00 | 0.00 | 79 | 1013.5 |
| 20260903182241 | 28 | 150 | 9.7 | 17.7 | 0.00 | 0.00 | 0.00 | 78 | 1013.5 |
| 20260903181241 | 29 | 155 | 8.0 | 14.5 | 0.00 | 0.00 | 0.00 | 77 | 1013.6 |
| 20260903180741 | 28 | 157 | 9.7 | 16.1 | 0.00 | 0.00 | 0.00 | 78 | 1013.7 |
| 20260903180240 | 28 | 153 | 9.7 | 16.1 | 0.00 | 0.00 | 0.00 | 78 | 1013.8 |
| 20260903175740 | 29 | 147 | 9.7 | 17.7 | 0.00 | 0.00 | 0.00 | 77 | 1013.9 |
| 20260903175242 | 29 | 150 | 11.3 | 17.7 | 0.00 | 0.00 | 0.00 | 77 | 1013.9 |
| 20260903174741 | 30 | 156 | 11.3 | 19.3 | 0.00 | 0.00 | 0.00 | 77 | 1014.0 |
| 20260903174240 | 30 | 153 | 9.7 | 19.3 | 0.00 | 0.00 | 0.00 | 76 | 1014.0 |
| 20260903173740 | 29 | 143 | 8.0 | 14.5 | 0.00 | 0.00 | 0.00 | 78 | 1014.1 |
| 20260903173240 | 28 | 138 | 8.0 | 12.9 | 0.00 | 0.00 | 0.00 | 80 | 1014.3 |
| 20260903172240 | 28 | 143 | 8.0 | 14.5 | 0.00 | 0.00 | 0.00 | 81 | 1014.4 |
| 20260903171740 | 28 | 143 | 8.0 | 14.5 | 0.00 | 0.00 | 0.00 | 81 | 1014.4 |
| 20260903171240 | 28 | 146 | 8.0 | 14.5 | 0.00 | 0.00 | 0.00 | 81 | 1014.5 |
| 20260903170740 | 28 | 148 | 8.0 | 14.5 | 0.00 | 0.00 | 0.00 | 80 | 1014.5 |
| 20260903170241 | 28 | 142 | 8.0 | 19.3 | 0.00 | 0.00 | 0.00 | 80 | 1014.5 |
| 20260903165740 | 28 | 144 | 8.0 | 19.3 | 0.00 | 0.00 | 0.00 | 79 | 1014.4 |
| 20260903165241 | 28 | 151 | 8.0 | 16.1 | 0.00 | 0.00 | 0.00 | 80 | 1014.4 |
| 20260903164240 | 28 | 152 | 8.0 | 16.1 | 0.00 | 0.00 | 0.00 | 79 | 1014.4 |
| 20260903163741 | 28 | 151 | 8.0 | 16.1 | 0.00 | 0.00 | 0.00 | 79 | 1014.4 |
| 20260903162741 | 28 | 150 | 6.4 | 16.1 | 0.00 | 0.00 | 0.00 | 79 | 1014.4 |
| 20260903162240 | 28 | 147 | 6.4 | 14.5 | 0.00 | 0.00 | 0.00 | 80 | 1014.3 |
| 20260903161240 | 28 | 147 | 6.4 | 12.9 | 0.00 | 0.00 | 0.00 | 80 | 1014.2 |
| 20260903160740 | 28 | 148 | 6.4 | 12.9 | 0.00 | 0.00 | 0.00 | 81 | 1014.2 |
| 20260903160241 | 27 | 151 | 6.4 | 12.9 | 0.00 | 0.00 | 0.00 | 81 | 1014.1 |
| 20260903155740 | 28 | 156 | 4.8 | 12.9 | 0.00 | 0.00 | 0.00 | 81 | 1014.0 |
| 20260903155240 | 28 | 152 | 6.4 | 14.5 | 0.00 | 0.00 | 0.00 | 81 | 1014.0 |
| 20260903154740 | 28 | 151 | 6.4 | 14.5 | 0.00 | 0.00 | 0.00 | 81 | 1013.9 |
| 20260903154241 | 27 | 154 | 6.4 | 12.9 | 0.00 | 0.00 | 0.00 | 81 | 1014.0 |
| 20260903153241 | 27 | 152 | 6.4 | 12.9 | 0.00 | 0.00 | 0.00 | 82 | 1013.8 |
| 20260903152740 | 27 | 149 | 6.4 | 12.9 | 0.00 | 0.00 | 0.00 | 82 | 1013.7 |
| 20260903152241 | 27 | 148 | 6.4 | 14.5 | 0.00 | 0.00 | 0.00 | 82 | 1013.7 |
| 20260903151740 | 27 | 150 | 6.4 | 14.5 | 0.00 | 0.00 | 0.00 | 82 | 1013.8 |
| 20260903151240 | 27 | 151 | 6.4 | 12.9 | 0.00 | 0.00 | 0.00 | 83 | 1013.7 |
| 20260903150740 | 27 | 152 | 6.4 | 14.5 | 0.00 | 0.00 | 0.00 | 83 | 1013.7 |
| 20260903150241 | 27 | 151 | 6.4 | 14.5 | 0.00 | 0.00 | 0.00 | 83 | 1013.6 |
| 20260903145741 | 27 | 151 | 4.8 | 11.3 | 0.00 | 0.00 | 0.00 | 83 | 1013.5 |
| 20260903144740 | 27 | 148 | 3.2 | 11.3 | 0.00 | 0.00 | 0.00 | 84 | 1013.5 |
| 20260903144240 | 27 | 153 | 3.2 | 8.0 | 0.00 | 0.00 | 0.00 | 83 | 1013.6 |
| 20260903143740 | 27 | 153 | 4.8 | 9.7 | 0.00 | 0.00 | 0.00 | 83 | 1013.6 |
| 20260903143241 | 27 | 154 | 4.8 | 9.7 | 0.00 | 0.00 | 0.00 | 83 | 1013.5 |
| 20260903142740 | 27 | 152 | 4.8 | 11.3 | 0.00 | 0.00 | 0.00 | 83 | 1013.4 |
| 20260903142241 | 27 | 150 | 4.8 | 11.3 | 0.00 | 0.00 | 0.00 | 83 | 1013.3 |
| 20260903141740 | 27 | 147 | 4.8 | 8.0 | 0.00 | 0.00 | 0.00 | 83 | 1013.3 |
| 20260903141240 | 27 | 145 | 4.8 | 11.3 | 0.00 | 0.00 | 0.00 | 83 | 1013.3 |
| 20260903140241 | 27 | 143 | 3.2 | 8.0 | 0.00 | 0.00 | 0.00 | 83 | 1013.4 |
| 20260903135740 | 27 | 149 | 3.2 | 6.4 | 0.00 | 0.00 | 0.00 | 83 | 1013.4 |